loading
|

OBJECT E, 61242

Orbit data source: Space-Track

OBJECT E, 61242 is a satellite owned by Yunyao yuhang (CN) in SSO that was launched on Tue, 24 Sep 2024 UTC via a LIJIAN-1 launch vehicle from the Jiuquan Satellite Launch Center, China (JSC). Unknown objects in Earth's orbit typically refer to objects detected orbiting the Earth but have not yet been identified or cataloged. These objects could be anything from previously untracked satellites, spent rocket stages, debris from satellite collisions, or even natural meteoroids temporarily captured by Earth's gravity.

Loading next visibility...
Next conjunction unknown
Loading greatness...
OBJECT E details
Identifier
61242, 2024-174E
Orbit
SSO
Last TLE update11 hours ago
Origin
Flag of CNYunyao yuhang (CN / PRC)
ManufacturerYunyao yuhang
MissionOperational spacecraft
Bus & MotorYY-1, Unknown motor
Mass~50 kg wet, ~50 kg dry
Launch date (UTC)
2024-09-24 (3 weeks ago)
Launch vehicle
LIJIAN-1
Launch site
Jiuquan Satellite Launch Center, China (JSC)
Object typeUnknown
Shape & HBRUnknown
Radar Cross SectionMedium (>0.1 m² and <1 m²)

Expand to show TLE details & history

TLE from 11 hours ago
0 OBJECT E
1 61242U 24174E   24288.16207108  .00010227  00000-0  52505-3 0  9994
2 61242  97.4575 293.1260 0015312 210.7330 149.3008 15.16602674  2864
Epoch: 2024-10-14T03:53Z
Definitive object data (Epoch: 2024-10-14T03:53:22.941Z)
Latitude-0°
Longitude-148.41276°
Altitude528.285 km
Speed7.594 km/s
True Right ascension19h 32m 30s
True Declination0° 00' 00"
Sunlit
Object was in daylight at TLE epoch
Predictive object data (real-time)
Latitude-51.89268°
Longitude-138.41385°
Altitude537.841 km
Speed7.591 km/s
Apparent Right ascension20h 47m 51s
Apparent Declination-46° 15' 48"
Sunlit
Object is in daylight
Predictive observer data (real-time)
Local Sidereal Time09:18:40
Azimuth141.015° SSE
Elevation-81.525°
Doppler factor1
Orbital elements
Apogee523.642 km
Perigee502.538 km
Semi-major axis6,891.227 km
Eccentricity0.0015312
Inclination97.4575°
RAAN293.126°
Arg. of periapsis210.733°
True anomaly149.39023°
Mean anomaly149.3008°
Eccentric anomaly149.34553°
Mean motion3.79401 °/min
BSTAR0.00052505
Period94.89 mins
No data available
No data available

OBJECT E Visibility forecast

Observer location: 39.9160978°, -105.1181434

Span
Click to sort rows by Start time (UTC) header in descending order
Start Az.
Max El. time (UTC)
Max El. Az.
Max El.
End time (UTC)
End Az.
7 mins2024-10-15 00:35:35.950Z170.731° S2024-10-15 00:39:35.950Z326.513° NNW42.119°2024-10-15 00:42:35.950Z345.482° N
5 mins2024-10-15 13:43:35.950Z344.397° N2024-10-15 13:45:35.950Z264.157° W35.555°2024-10-15 13:48:35.950Z212.06° SW